This demonstration page uses our WeatherBlox Daily Observations layout. Learn more.

Left ArrowRight Arrow

Hourly Observations for August 30, 2015

Temp ( °F °C ) Dew Point ( °F °C ) Humidity (%) Winds ( mph kmh ) Pressure ( in mb ) Visibility ( mi km ) Precip ( " mm )
12:20 am 00:20 Mostly Clear with Nearby Thunderstorms 70 21.1 67 19.4 90 90 NW 3 6 30.06 1018 9 14 N/A
12:46 am 00:46 Mostly Cloudy 74 23.3 67 19.4 79 79 N N/A 30.06 1018 10 16 N/A
12:53 am 00:53 Partly Cloudy 73 22.8 67 19.4 81 81 N N/A 30.07 1018 10 16 N/A
1:50 am 01:50 Mostly Cloudy with Nearby Thunderstorms 72 22 66 19 83 83 N N/A 30.06 1018 10 16 N/A
1:53 am 01:53 Mostly Cloudy with Nearby Thunderstorms 72 22.2 67 19.4 84 84 NW 5 7 30.07 1018 10 16 N/A
2:15 am 02:15 Mostly Cloudy 72 22.2 67 19.4 84 84 N N/A 30.06 1018 10 16 N/A
2:53 am 02:53 Mostly Clear 72 22.2 67 19.4 84 84 N N/A 30.06 1018 10 16 N/A
3:53 am 03:53 Mostly Clear 70 21.1 67 19.4 90 90 N N/A 30.06 1018 10 16 N/A
4:29 am 04:29 Mostly Cloudy with Nearby Thunderstorms 69 20.6 67 19.4 93 93 N N/A 30.06 1018 8 13 N/A
4:53 am 04:53 Mostly Cloudy 69 20.6 67 19.4 93 93 N 3 6 30.06 1018 9 14 N/A
5:53 am 05:53 Clear 68 20 66 18.9 93 93 N N/A 30.07 1018 8 13 N/A
6:53 am 06:53 Clear with Mist and Fog 68 20 66 18.9 93 93 SSE 3 6 30.09 1019 6 10 N/A
7:53 am 07:53 Sunny 69 20.6 67 19.4 93 93 N N/A 30.10 1019 7 11 N/A
8:53 am 08:53 Sunny 73 22.8 68 20 84 84 VRB 3 6 30.10 1019 10 16 N/A
9:53 am 09:53 Sunny 76 24.4 68 20 77 77 VRB 5 7 30.11 1020 10 16 N/A
10:53 am 10:53 Sunny 79 26.1 69 20.6 72 72 VRB 3 6 30.11 1020 10 16 N/A
11:53 am 11:53 Sunny 80 26.7 70 21.1 71 71 VRB 3 6 30.11 1020 10 16 N/A
12:53 pm 12:53 Sunny 83 28.3 70 21.1 65 65 VRB 3 6 30.09 1019 10 16 N/A
1:53 pm 13:53 Mostly Cloudy 84 28.9 70 21.1 63 63 VRB 3 6 30.08 1019 10 16 N/A
2:53 pm 14:53 Partly Cloudy 88 31.1 69 20.6 54 54 VRB 5 7 30.06 1018 10 16 N/A
3:17 pm 15:17 Partly Cloudy with Nearby Thunderstorms 87 30.6 68 20 53 53 VRB 5 7 30.03 1017 10 16 N/A
3:42 pm 15:42 Mostly Sunny 85 29.4 69 20.6 59 59 WSW 6 9 30.03 1017 10 16 N/A
3:53 pm 15:53 Mostly Sunny 83 28.3 70 21.1 65 65 W 7 11 30.04 1017 10 16 N/A
4:53 pm 16:53 Sunny with Thunderstorms 87 30.6 68 20 53 53 VRB 5 7 30.03 1017 10 16 N/A
5:10 pm 17:10 Sunny with Nearby Thunderstorms 87 30.6 69 20.6 55 55 VRB 5 7 30.00 1016 10 16 N/A
5:53 pm 17:53 Mostly Cloudy 81 27.2 68 20 65 65 S 3 6 30.02 1017 10 16 N/A
6:08 pm 18:08 Partly Cloudy with Nearby Thunderstorms 79 26.1 70 21.1 74 74 SSW 6 9 30.06 1018 10 16 N/A
6:51 pm 18:51 Cloudy 73 23 66 19 78 78 S 3 6 30.06 1018 10 16 N/A
6:53 pm 18:53 Mostly Cloudy with Nearby Thunderstorms 74 23.3 67 19.4 79 79 SSW 5 7 30.05 1018 10 16 N/A
7:13 pm 19:13 Mostly Cloudy 75 23.9 69 20.6 82 82 N N/A 30.06 1018 10 16 N/A
7:53 pm 19:53 Mostly Cloudy 75 23.9 67 19.4 76 76 N N/A 30.05 1018 10 16 N/A
8:53 pm 20:53 Clear 70 21.1 67 19.4 90 90 SE 5 7 30.06 1018 7 11 N/A
9:53 pm 21:53 Clear 69 20.6 67 19.4 93 93 N N/A 30.07 1018 8 13 N/A
10:53 pm 22:53 Partly Cloudy with Mist and Fog 68 20 67 19.4 96 96 N N/A 30.08 1019 5 8 N/A
11:53 pm 23:53 Clear with Mist and Fog 67 19.4 65 18.3 93 93 N N/A 30.07 1018 5 8 N/A

Powered by AerisWeather